Time,TemperatureF,DewpointF,PressureIn,WindDirection,WindDirectionDegrees,WindSpeedMPH,WindSpeedGustMPH,Humidity,HourlyPrecipIn,Conditions,Clouds,dailyrainin,SoftwareType,DateUTC
2013-01-31 00:03:00,39.2,24.0,30.37,South,171,0.0,-999.0,54,-99.99,,,0.00,weatherlink.com 1.10,2013-01-31 07:03:00,
2013-01-31 00:18:00,38.2,24.0,30.36,SSE,165,0.0,-999.0,58,-99.99,,,0.00,weatherlink.com 1.10,2013-01-31 07:18:00,
2013-01-31 00:33:00,37.5,24.0,30.37,SSE,165,0.0,-999.0,59,-99.99,,,0.00,weatherlink.com 1.10,2013-01-31 07:33:00,
2013-01-31 00:49:00,37.3,24.0,30.38,SSE,165,0.0,-999.0,59,-99.99,,,0.00,weatherlink.com 1.10,2013-01-31 07:49:00,
2013-01-31 01:03:00,37.2,24.0,30.38,SSE,165,0.0,-999.0,59,-99.99,,,0.00,weatherlink.com 1.10,2013-01-31 08:03:00,
2013-01-31 01:18:00,36.8,24.0,30.38,SSE,165,0.0,-999.0,60,-99.99,,,0.00,weatherlink.com 1.10,2013-01-31 08:18:00,
2013-01-31 01:34:00,35.8,24.0,30.38,South,186,0.0,-999.0,63,-99.99,,,0.00,weatherlink.com 1.10,2013-01-31 08:34:00,
2013-01-31 01:49:00,35.3,24.0,30.37,South,169,0.0,-999.0,63,-99.99,,,0.00,weatherlink.com 1.10,2013-01-31 08:49:00,
2013-01-31 02:04:00,34.6,23.0,30.37,SSE,165,0.0,-999.0,64,-99.99,,,0.00,weatherlink.com 1.10,2013-01-31 09:04:00,
2013-01-31 02:19:00,33.8,23.0,30.37,SSE,162,0.0,-999.0,66,-99.99,,,0.00,weatherlink.com 1.10,2013-01-31 09:19:00,
2013-01-31 02:34:00,33.7,24.0,30.36,SSE,162,0.0,-999.0,67,-99.99,,,0.00,weatherlink.com 1.10,2013-01-31 09:34:00,
2013-01-31 02:49:00,33.5,24.0,30.36,SSE,162,0.0,-999.0,68,-99.99,,,0.00,weatherlink.com 1.10,2013-01-31 09:49:00,
2013-01-31 03:04:00,33.5,24.0,30.36,SSE,162,0.0,-999.0,68,-99.99,,,0.00,weatherlink.com 1.10,2013-01-31 10:04:00,
2013-01-31 03:19:00,33.8,25.0,30.36,SSE,161,0.0,-999.0,69,-99.99,,,0.00,weatherlink.com 1.10,2013-01-31 10:19:00,
2013-01-31 03:34:00,33.5,24.0,30.35,SSE,161,0.0,-999.0,69,-99.99,,,0.00,weatherlink.com 1.10,2013-01-31 10:34:00,
2013-01-31 03:50:00,33.8,25.0,30.34,SSE,161,0.0,-999.0,69,-99.99,,,0.00,weatherlink.com 1.10,2013-01-31 10:50:00,
2013-01-31 10:33:00,50.5,24.0,30.32,WSW,250,0.0,-999.0,36,-99.99,,,0.00,weatherlink.com 1.10,2013-01-31 17:33:00,
2013-01-31 10:51:00,52.9,25.0,30.33,WSW,251,0.0,-999.0,34,-99.99,,,0.00,weatherlink.com 1.10,2013-01-31 17:51:00,
2013-01-31 11:06:00,53.6,26.0,30.32,WSW,256,0.0,-999.0,34,-99.99,,,0.00,weatherlink.com 1.10,2013-01-31 18:06:00,
2013-01-31 11:22:00,54.8,24.0,30.31,WSW,248,0.0,-999.0,30,-99.99,,,0.00,weatherlink.com 1.10,2013-01-31 18:22:00,
2013-01-31 11:37:00,55.4,25.0,30.30,WSW,258,0.0,-999.0,31,-99.99,,,0.00,weatherlink.com 1.10,2013-01-31 18:37:00,
2013-01-31 11:52:00,55.4,23.0,30.28,WSW,248,0.0,-999.0,29,-99.99,,,0.00,weatherlink.com 1.10,2013-01-31 18:52:00,
2013-01-31 12:07:00,56.5,24.0,30.27,SSW,202,0.0,-999.0,28,-99.99,,,0.00,weatherlink.com 1.10,2013-01-31 19:07:00,
2013-01-31 12:22:00,57.6,25.0,30.28,WSW,237,0.0,-999.0,28,-99.99,,,0.00,weatherlink.com 1.10,2013-01-31 19:22:00,
2013-01-31 12:37:00,58.1,24.0,30.28,West,261,0.0,-999.0,27,-99.99,,,0.00,weatherlink.com 1.10,2013-01-31 19:37:00,
2013-01-31 12:52:00,58.1,23.0,30.27,West,278,0.0,-999.0,26,-99.99,,,0.00,weatherlink.com 1.10,2013-01-31 19:52:00,
2013-01-31 13:07:00,58.4,23.0,30.27,West,272,0.0,-999.0,26,-99.99,,,0.00,weatherlink.com 1.10,2013-01-31 20:07:00,
2013-01-31 13:22:00,59.2,23.0,30.26,WSW,237,0.0,-999.0,25,-99.99,,,0.00,weatherlink.com 1.10,2013-01-31 20:22:00,
2013-01-31 13:37:00,60.7,24.0,30.25,WNW,288,0.0,-999.0,24,-99.99,,,0.00,weatherlink.com 1.10,2013-01-31 20:37:00,
2013-01-31 13:53:00,61.3,23.0,30.24,WSW,237,0.0,-999.0,23,-99.99,,,0.00,weatherlink.com 1.10,2013-01-31 20:53:00,
2013-01-31 14:08:00,61.2,23.0,30.23,West,263,0.0,-999.0,23,-99.99,,,0.00,weatherlink.com 1.10,2013-01-31 21:08:00,
2013-01-31 14:23:00,61.6,24.0,30.23,SW,226,0.0,-999.0,24,-99.99,,,0.00,weatherlink.com 1.10,2013-01-31 21:23:00,
2013-01-31 14:38:00,62.3,25.0,30.23,WSW,241,0.0,-999.0,24,-99.99,,,0.00,weatherlink.com 1.10,2013-01-31 21:38:00,
2013-01-31 14:53:00,61.8,25.0,30.23,WSW,250,0.0,-999.0,25,-99.99,,,0.00,weatherlink.com 1.10,2013-01-31 21:53:00,
2013-01-31 15:08:00,62.6,26.0,30.23,WSW,257,4.0,-999.0,25,-99.99,,,0.00,weatherlink.com 1.10,2013-01-31 22:08:00,
2013-01-31 15:23:00,61.5,25.0,30.23,SW,236,4.0,-999.0,25,-99.99,,,0.00,weatherlink.com 1.10,2013-01-31 22:23:00,
2013-01-31 15:38:00,60.1,27.0,30.23,WSW,241,4.0,-999.0,28,-99.99,,,0.00,weatherlink.com 1.10,2013-01-31 22:38:00,
2013-01-31 15:53:00,59.2,26.0,30.23,WNW,294,4.0,-999.0,28,-99.99,,,0.00,weatherlink.com 1.10,2013-01-31 22:53:00,
2013-01-31 16:08:00,58.9,25.0,30.24,WSW,244,2.0,-999.0,27,-99.99,,,0.00,weatherlink.com 1.10,2013-01-31 23:08:00,
2013-01-31 16:23:00,58.9,27.0,30.24,WSW,251,2.0,-999.0,30,-99.99,,,0.00,weatherlink.com 1.10,2013-01-31 23:23:00,
2013-01-31 16:39:00,58.1,27.0,30.23,West,281,2.0,-999.0,31,-99.99,,,0.00,weatherlink.com 1.10,2013-01-31 23:39:00,
2013-01-31 16:53:00,57.8,28.0,30.23,WNW,284,1.0,-999.0,32,-99.99,,,0.00,weatherlink.com 1.10,2013-01-31 23:53:00,
2013-01-31 17:08:00,57.8,28.0,30.23,WNW,282,2.0,-999.0,32,-99.99,,,0.00,weatherlink.com 1.10,2013-02-01 00:08:00,
2013-01-31 17:24:00,57.6,29.0,30.23,WNW,284,2.0,-999.0,33,-99.99,,,0.00,weatherlink.com 1.10,2013-02-01 00:24:00,
2013-01-31 17:39:00,56.9,29.0,30.24,WNW,284,1.0,-999.0,34,-99.99,,,0.00,weatherlink.com 1.10,2013-02-01 00:39:00,
2013-01-31 17:54:00,55.9,30.0,30.24,WNW,284,0.0,-999.0,37,-99.99,,,0.00,weatherlink.com 1.10,2013-02-01 00:54:00,
2013-01-31 18:09:00,54.8,30.0,30.25,WNW,284,1.0,-999.0,39,-99.99,,,0.00,weatherlink.com 1.10,2013-02-01 01:09:00,
2013-01-31 18:24:00,53.8,30.0,30.25,West,281,2.0,-999.0,41,-99.99,,,0.00,weatherlink.com 1.10,2013-02-01 01:24:00,
2013-01-31 18:39:00,53.1,32.0,30.27,West,281,1.0,-999.0,45,-99.99,,,0.00,weatherlink.com 1.10,2013-02-01 01:39:00,
2013-01-31 18:54:00,52.2,32.0,30.27,West,281,0.0,-999.0,46,-99.99,,,0.00,weatherlink.com 1.10,2013-02-01 01:54:00,
2013-01-31 19:09:00,51.0,32.0,30.28,West,281,0.0,-999.0,49,-99.99,,,0.00,weatherlink.com 1.10,2013-02-01 02:09:00,
2013-01-31 19:24:00,49.9,32.0,30.29,West,281,0.0,-999.0,51,-99.99,,,0.00,weatherlink.com 1.10,2013-02-01 02:24:00,
2013-01-31 19:39:00,49.2,32.0,30.29,West,281,0.0,-999.0,52,-99.99,,,0.00,weatherlink.com 1.10,2013-02-01 02:39:00,
2013-01-31 19:54:00,48.3,32.0,30.30,West,281,0.0,-999.0,54,-99.99,,,0.00,weatherlink.com 1.10,2013-02-01 02:54:00,
2013-01-31 20:09:00,46.2,32.0,30.30,WNW,282,0.0,-999.0,57,-99.99,,,0.00,weatherlink.com 1.10,2013-02-01 03:09:00,
2013-01-31 20:25:00,45.7,31.0,30.29,West,281,0.0,-999.0,58,-99.99,,,0.00,weatherlink.com 1.10,2013-02-01 03:25:00,
2013-01-31 20:39:00,44.9,31.0,30.28,West,281,0.0,-999.0,59,-99.99,,,0.00,weatherlink.com 1.10,2013-02-01 03:39:00,
2013-01-31 20:55:00,43.2,30.0,30.28,West,281,0.0,-999.0,59,-99.99,,,0.00,weatherlink.com 1.10,2013-02-01 03:55:00,
2013-01-31 21:10:00,42.9,31.0,30.28,West,281,0.0,-999.0,62,-99.99,,,0.00,weatherlink.com 1.10,2013-02-01 04:10:00,
2013-01-31 21:25:00,42.5,31.0,30.25,West,281,0.0,-999.0,63,-99.99,,,0.00,weatherlink.com 1.10,2013-02-01 04:25:00,
2013-01-31 21:40:00,42.2,31.0,30.25,West,281,0.0,-999.0,65,-99.99,,,0.00,weatherlink.com 1.10,2013-02-01 04:40:00,
2013-01-31 21:55:00,42.5,32.0,30.25,WNW,287,0.0,-999.0,66,-99.99,,,0.00,weatherlink.com 1.10,2013-02-01 04:55:00,
2013-01-31 22:10:00,41.1,30.0,30.26,WNW,287,0.0,-999.0,66,-99.99,,,0.00,weatherlink.com 1.10,2013-02-01 05:10:00,
2013-01-31 22:25:00,40.6,31.0,30.26,WNW,282,0.0,-999.0,69,-99.99,,,0.00,weatherlink.com 1.10,2013-02-01 05:25:00,
2013-01-31 22:40:00,40.3,31.0,30.27,WNW,284,0.0,-999.0,69,-99.99,,,0.00,weatherlink.com 1.10,2013-02-01 05:40:00,
2013-01-31 22:55:00,39.9,30.0,30.28,WNW,282,1.0,-999.0,68,-99.99,,,0.00,weatherlink.com 1.10,2013-02-01 05:55:00,
2013-01-31 23:10:00,39.6,30.0,30.28,WNW,282,1.0,-999.0,69,-99.99,,,0.00,weatherlink.com 1.10,2013-02-01 06:10:00,
2013-01-31 23:25:00,39.1,30.0,30.28,WNW,284,1.0,-999.0,71,-99.99,,,0.00,weatherlink.com 1.10,2013-02-01 06:25:00,
2013-01-31 23:40:00,39.2,31.0,30.28,WNW,282,0.0,-999.0,71,-99.99,,,0.00,weatherlink.com 1.10,2013-02-01 06:40:00,
2013-01-31 23:55:00,40.3,30.0,30.28,West,281,0.0,-999.0,67,-99.99,,,0.00,weatherlink.com 1.10,2013-02-01 06:55:00,